TimePST,TemperatureF,Dew PointF,Humidity,Sea Level PressureIn,VisibilityMPH,Wind Direction,Wind SpeedMPH,Gust SpeedMPH,PrecipitationIn,Events,Conditions,WindDirDegrees,DateUTC
12:54 AM,51.1,44.1,77,29.91,10.0,South,16.1,24.2,0.00,Rain,Light Rain,170,2013-03-06 08:54:00
1:54 AM,50.0,45.0,83,29.91,5.0,South,17.3,-,0.02,Rain,Light Rain,180,2013-03-06 09:54:00
2:45 AM,51.8,46.4,82,29.91,7.0,SSW,16.1,23.0,0.03,Rain,Light Rain,210,2013-03-06 10:45:00
2:54 AM,51.1,45.0,80,29.94,9.0,SSW,15.0,21.9,0.03,Rain,Light Rain,210,2013-03-06 10:54:00
3:54 AM,51.1,46.9,86,29.94,8.0,South,11.5,18.4,0.00,Rain,Light Rain,190,2013-03-06 11:54:00
4:14 AM,53.6,46.4,77,29.93,10.0,SW,15.0,21.9,0.00,,Overcast,220,2013-03-06 12:14:00
4:54 AM,52.0,46.0,80,29.97,10.0,WSW,15.0,19.6,0.00,,Mostly Cloudy,250,2013-03-06 12:54:00
5:54 AM,51.1,43.0,74,29.99,10.0,West,12.7,20.7,N/A,,Partly Cloudy,260,2013-03-06 13:54:00
6:54 AM,50.0,42.1,74,30.03,10.0,SSW,4.6,-,N/A,,Clear,210,2013-03-06 14:54:00
7:54 AM,51.1,43.0,74,30.05,10.0,SW,8.1,-,N/A,,Partly Cloudy,230,2013-03-06 15:54:00
8:54 AM,53.1,43.0,69,30.08,10.0,SW,6.9,-,N/A,,Scattered Clouds,230,2013-03-06 16:54:00
9:54 AM,54.0,42.1,64,30.09,10.0,West,8.1,-,N/A,,Mostly Cloudy,260,2013-03-06 17:54:00
10:10 AM,53.6,41.0,62,30.07,10.0,West,9.2,-,N/A,,Scattered Clouds,270,2013-03-06 18:10:00
10:54 AM,55.0,41.0,59,30.11,10.0,SW,9.2,-,N/A,,Mostly Cloudy,230,2013-03-06 18:54:00
11:54 AM,55.9,39.9,55,30.11,10.0,WSW,10.4,-,N/A,,Clear,250,2013-03-06 19:54:00
12:54 PM,55.0,39.9,57,30.11,10.0,WNW,5.8,-,N/A,,Scattered Clouds,290,2013-03-06 20:54:00
1:54 PM,55.9,39.9,55,30.09,10.0,West,8.1,17.3,N/A,,Mostly Cloudy,270,2013-03-06 21:54:00
2:54 PM,55.9,39.9,55,30.09,10.0,WNW,5.8,-,N/A,,Clear,290,2013-03-06 22:54:00
3:54 PM,55.0,39.9,57,30.09,10.0,WNW,6.9,-,N/A,,Scattered Clouds,290,2013-03-06 23:54:00
4:54 PM,54.0,39.0,57,30.08,10.0,WNW,9.2,-,N/A,,Clear,290,2013-03-07 00:54:00
5:54 PM,53.1,39.0,59,30.06,10.0,WNW,5.8,-,N/A,,Clear,300,2013-03-07 01:54:00
6:54 PM,51.1,39.9,66,30.07,10.0,WNW,5.8,-,N/A,,Clear,290,2013-03-07 02:54:00
7:54 PM,50.0,41.0,71,30.06,10.0,West,5.8,-,N/A,,Mostly Cloudy,270,2013-03-07 03:54:00
8:54 PM,50.0,39.9,68,30.06,10.0,Calm,Calm,-,N/A,,Clear,0,2013-03-07 04:54:00
9:54 PM,48.0,39.9,74,30.06,10.0,NE,3.5,-,N/A,,Clear,50,2013-03-07 05:54:00
10:54 PM,46.0,39.0,76,30.04,10.0,NE,5.8,-,N/A,,Clear,50,2013-03-07 06:54:00
11:54 PM,44.1,37.9,79,30.04,10.0,NE,3.5,-,N/A,,Clear,50,2013-03-07 07:54:00